Time,TemperatureF,DewpointF,PressureIn,WindDirection,WindDirectionDegrees,WindSpeedMPH,WindSpeedGustMPH,Humidity,HourlyPrecipIn,Conditions,Clouds,dailyrainin,SolarRadiationWatts/m^2,SoftwareType,DateUTC
2013-06-24 00:01:00,70.2,68.4,30.06,SSE,152,0.0,0.0,94,0.00,,,0.00,0,Wunderground v.1.15,2013-06-24 04:01:00,
2013-06-24 00:03:00,70.2,68.7,30.06,South,172,0.0,0.0,95,0.00,,,0.00,0,Wunderground v.1.15,2013-06-24 04:03:00,
2013-06-24 00:05:00,70.2,68.7,30.06,SE,140,0.0,1.0,95,0.00,,,0.00,0,Wunderground v.1.15,2013-06-24 04:05:00,
2013-06-24 00:10:00,70.1,68.6,30.06,SSE,157,0.0,0.0,95,0.00,,,0.00,0,Wunderground v.1.15,2013-06-24 04:10:00,
2013-06-24 00:15:00,70.1,68.6,30.06,SSE,148,0.0,1.0,95,0.00,,,0.00,0,Wunderground v.1.15,2013-06-24 04:15:00,
2013-06-24 00:20:00,70.1,68.6,30.06,SSE,147,0.0,0.0,95,0.00,,,0.00,0,Wunderground v.1.15,2013-06-24 04:20:00,
2013-06-24 00:26:00,70.1,68.6,30.06,SSW,192,0.0,1.0,95,0.00,,,0.00,0,Wunderground v.1.15,2013-06-24 04:26:00,
2013-06-24 00:31:00,70.1,68.6,30.06,SE,140,0.0,0.0,95,0.00,,,0.00,0,Wunderground v.1.15,2013-06-24 04:31:00,
2013-06-24 00:37:00,70.1,68.6,30.06,South,176,0.0,1.0,95,0.00,,,0.00,0,Wunderground v.1.15,2013-06-24 04:37:00,
2013-06-24 00:42:00,70.2,68.7,30.06,South,186,0.0,1.0,95,0.00,,,0.00,0,Wunderground v.1.15,2013-06-24 04:42:00,
2013-06-24 00:48:00,70.1,68.6,30.06,SW,221,0.0,1.0,95,0.00,,,0.00,0,Wunderground v.1.15,2013-06-24 04:48:00,
2013-06-24 00:54:00,70.1,68.6,30.06,WNW,289,0.0,3.0,95,0.00,,,0.00,0,Wunderground v.1.15,2013-06-24 04:54:00,
2013-06-24 01:00:00,70.1,68.6,30.06,SW,223,0.0,1.0,95,0.00,,,0.00,0,Wunderground v.1.15,2013-06-24 05:00:00,
2013-06-24 01:06:00,70.1,68.6,30.06,SW,223,0.0,1.0,95,0.00,,,0.00,0,Wunderground v.1.15,2013-06-24 05:06:00,
2013-06-24 01:11:00,70.1,68.6,30.06,South,173,0.0,2.0,95,0.00,,,0.00,0,Wunderground v.1.15,2013-06-24 05:11:00,
2013-06-24 01:17:00,70.0,68.5,30.06,South,173,0.0,2.0,95,0.00,,,0.00,0,Wunderground v.1.15,2013-06-24 05:17:00,
2013-06-24 01:23:00,70.0,68.5,30.06,SSE,163,0.0,0.0,95,0.00,,,0.00,0,Wunderground v.1.15,2013-06-24 05:23:00,
2013-06-24 01:29:00,70.0,68.5,30.06,South,175,0.0,2.0,95,0.00,,,0.00,0,Wunderground v.1.15,2013-06-24 05:29:00,
2013-06-24 01:34:00,70.1,68.6,30.06,South,178,0.0,1.0,95,0.00,,,0.00,0,Wunderground v.1.15,2013-06-24 05:34:00,
2013-06-24 01:39:00,70.1,68.6,30.06,South,183,0.0,1.0,95,0.00,,,0.00,0,Wunderground v.1.15,2013-06-24 05:39:00,
2013-06-24 01:44:00,70.3,68.8,30.06,SSW,193,0.0,1.0,95,0.00,,,0.00,0,Wunderground v.1.15,2013-06-24 05:44:00,
2013-06-24 01:50:00,70.4,68.6,30.06,South,188,0.0,0.0,94,0.00,,,0.00,0,Wunderground v.1.15,2013-06-24 05:50:00,
2013-06-24 01:56:00,70.5,68.7,30.06,SE,138,0.0,1.0,94,0.00,,,0.00,0,Wunderground v.1.15,2013-06-24 05:56:00,
2013-06-24 02:02:00,70.6,68.8,30.06,SW,216,0.0,1.0,94,0.00,,,0.00,0,Wunderground v.1.15,2013-06-24 06:02:00,
2013-06-24 02:08:00,70.7,68.9,30.05,NW,307,1.0,3.0,94,0.00,,,0.00,0,Wunderground v.1.15,2013-06-24 06:08:00,
2013-06-24 02:16:00,70.7,68.9,30.05,South,175,1.0,1.0,94,0.00,,,0.00,0,Wunderground v.1.15,2013-06-24 06:16:00,
2013-06-24 02:22:00,70.7,68.9,30.05,SSE,150,1.0,2.0,94,0.00,,,0.00,0,Wunderground v.1.15,2013-06-24 06:22:00,
2013-06-24 02:27:00,70.6,68.8,30.05,East,80,1.0,2.0,94,0.00,,,0.00,0,Wunderground v.1.15,2013-06-24 06:27:00,
2013-06-24 02:33:00,70.5,68.7,30.05,ENE,77,1.0,2.0,94,0.00,,,0.00,0,Wunderground v.1.15,2013-06-24 06:33:00,
2013-06-24 02:39:00,70.4,68.6,30.05,WNW,295,1.0,2.0,94,0.00,,,0.00,0,Wunderground v.1.15,2013-06-24 06:39:00,
2013-06-24 02:45:00,70.3,68.5,30.05,WSW,252,1.0,2.0,94,0.00,,,0.00,0,Wunderground v.1.15,2013-06-24 06:45:00,
2013-06-24 02:51:00,70.2,68.4,30.04,SE,138,0.0,0.0,94,0.00,,,0.00,0,Wunderground v.1.15,2013-06-24 06:51:00,
2013-06-24 02:58:00,70.1,68.3,30.04,NW,320,0.0,1.0,94,0.00,,,0.00,0,Wunderground v.1.15,2013-06-24 06:58:00,
2013-06-24 03:04:00,70.0,68.5,30.04,South,174,0.0,2.0,95,0.00,,,0.00,0,Wunderground v.1.15,2013-06-24 07:04:00,
2013-06-24 03:11:00,70.0,68.5,30.04,South,186,0.0,2.0,95,0.00,,,0.00,0,Wunderground v.1.15,2013-06-24 07:11:00,
2013-06-24 03:16:00,70.0,68.5,30.04,WSW,245,0.0,2.0,95,0.00,,,0.00,0,Wunderground v.1.15,2013-06-24 07:16:00,
2013-06-24 03:22:00,70.0,68.5,30.04,SSE,167,0.0,1.0,95,0.00,,,0.00,0,Wunderground v.1.15,2013-06-24 07:22:00,
2013-06-24 03:27:00,69.9,68.4,30.04,NNW,346,1.0,2.0,95,0.00,,,0.00,0,Wunderground v.1.15,2013-06-24 07:27:00,
2013-06-24 03:33:00,69.8,68.3,30.05,NNW,346,0.0,0.0,95,0.00,,,0.00,0,Wunderground v.1.15,2013-06-24 07:33:00,
2013-06-24 03:40:00,69.8,68.3,30.04,SSE,152,0.0,0.0,95,0.00,,,0.00,0,Wunderground v.1.15,2013-06-24 07:40:00,
2013-06-24 03:45:00,69.7,68.2,30.04,SSW,211,0.0,1.0,95,0.00,,,0.00,0,Wunderground v.1.15,2013-06-24 07:45:00,
2013-06-24 03:50:00,69.7,68.2,30.04,SSE,162,0.0,0.0,95,0.00,,,0.00,0,Wunderground v.1.15,2013-06-24 07:50:00,
2013-06-24 03:55:00,69.6,68.1,30.04,South,186,0.0,2.0,95,0.00,,,0.00,0,Wunderground v.1.15,2013-06-24 07:55:00,
2013-06-24 04:00:00,69.5,68.3,30.03,South,181,0.0,0.0,96,0.00,,,0.00,0,Wunderground v.1.15,2013-06-24 08:00:00,
2013-06-24 04:06:00,69.4,67.9,30.03,SSW,207,0.0,1.0,95,0.00,,,0.00,0,Wunderground v.1.15,2013-06-24 08:06:00,
2013-06-24 04:13:00,69.4,68.2,30.03,SSE,158,0.0,0.0,96,0.00,,,0.00,0,Wunderground v.1.15,2013-06-24 08:13:00,
2013-06-24 04:18:00,69.4,68.2,30.03,SSE,155,0.0,2.0,96,0.00,,,0.00,0,Wunderground v.1.15,2013-06-24 08:18:00,
2013-06-24 04:23:00,69.3,68.1,30.04,South,181,0.0,0.0,96,0.00,,,0.00,0,Wunderground v.1.15,2013-06-24 08:23:00,
2013-06-24 04:29:00,69.4,68.2,30.03,South,175,0.0,1.0,96,0.00,,,0.00,0,Wunderground v.1.15,2013-06-24 08:29:00,
2013-06-24 04:35:00,69.4,68.2,30.03,South,176,0.0,1.0,96,0.00,,,0.00,0,Wunderground v.1.15,2013-06-24 08:35:00,
2013-06-24 04:40:00,69.3,68.1,30.03,South,176,0.0,0.0,96,0.00,,,0.00,0,Wunderground v.1.15,2013-06-24 08:40:00,
2013-06-24 04:47:00,69.2,68.0,30.03,South,176,0.0,1.0,96,0.00,,,0.00,0,Wunderground v.1.15,2013-06-24 08:47:00,
2013-06-24 04:53:00,69.0,67.8,30.02,South,190,0.0,1.0,96,0.00,,,0.00,0,Wunderground v.1.15,2013-06-24 08:53:00,
2013-06-24 04:59:00,68.9,67.7,30.02,South,188,0.0,3.0,96,0.00,,,0.00,0,Wunderground v.1.15,2013-06-24 08:59:00,
2013-06-24 05:04:00,68.8,67.6,30.02,South,188,0.0,1.0,96,0.00,,,0.00,0,Wunderground v.1.15,2013-06-24 09:04:00,
2013-06-24 05:10:00,68.5,67.3,30.02,SE,146,0.0,0.0,96,0.00,,,0.00,0,Wunderground v.1.15,2013-06-24 09:10:00,
2013-06-24 05:15:00,68.4,67.5,30.02,SSE,167,0.0,1.0,97,0.00,,,0.00,0,Wunderground v.1.15,2013-06-24 09:15:00,
2013-06-24 05:21:00,68.2,67.3,30.02,SSE,166,0.0,1.0,97,0.00,,,0.00,0,Wunderground v.1.15,2013-06-24 09:21:00,
2013-06-24 05:27:00,68.1,67.2,30.02,South,183,1.0,3.0,97,0.00,,,0.00,0,Wunderground v.1.15,2013-06-24 09:27:00,
2013-06-24 05:33:00,67.9,67.0,30.02,South,191,1.0,1.0,97,0.00,,,0.00,5,Wunderground v.1.15,2013-06-24 09:33:00,
2013-06-24 05:38:00,67.8,66.9,30.02,South,188,1.0,2.0,97,0.00,,,0.00,5,Wunderground v.1.15,2013-06-24 09:38:00,
2013-06-24 05:44:00,67.7,66.8,30.01,South,184,1.0,1.0,97,0.00,,,0.00,7,Wunderground v.1.15,2013-06-24 09:44:00,
2013-06-24 05:49:00,67.7,66.8,30.01,SSW,197,1.0,2.0,97,0.00,,,0.00,11,Wunderground v.1.15,2013-06-24 09:49:00,
2013-06-24 05:55:00,67.6,66.7,30.01,SSE,163,1.0,4.0,97,0.00,,,0.00,14,Wunderground v.1.15,2013-06-24 09:55:00,
2013-06-24 06:00:00,67.6,66.7,30.01,South,184,1.0,1.0,97,0.00,,,0.00,16,Wunderground v.1.15,2013-06-24 10:00:00,
2013-06-24 06:06:00,67.5,66.6,30.01,South,169,1.0,1.0,97,0.00,,,0.00,19,Wunderground v.1.15,2013-06-24 10:06:00,
2013-06-24 06:13:00,67.5,66.6,30.01,SSE,155,1.0,1.0,97,0.00,,,0.00,23,Wunderground v.1.15,2013-06-24 10:13:00,
2013-06-24 06:20:00,67.5,66.9,30.01,South,182,1.0,1.0,98,0.00,,,0.00,40,Wunderground v.1.15,2013-06-24 10:20:00,
2013-06-24 06:25:00,67.6,67.0,30.01,South,185,1.0,2.0,98,0.00,,,0.00,37,Wunderground v.1.15,2013-06-24 10:25:00,
2013-06-24 06:31:00,67.6,67.0,30.01,NW,315,0.0,0.0,98,0.00,,,0.00,25,Wunderground v.1.15,2013-06-24 10:31:00,
2013-06-24 06:37:00,67.5,66.9,30.01,South,180,0.0,0.0,98,0.00,,,0.00,28,Wunderground v.1.15,2013-06-24 10:37:00,
2013-06-24 06:42:00,67.6,67.0,30.01,South,171,0.0,1.0,98,0.00,,,0.00,39,Wunderground v.1.15,2013-06-24 10:42:00,
2013-06-24 06:48:00,67.6,67.0,30.01,SSE,158,0.0,1.0,98,0.00,,,0.00,42,Wunderground v.1.15,2013-06-24 10:48:00,
2013-06-24 06:53:00,67.7,67.1,30.01,SSE,163,0.0,1.0,98,0.00,,,0.00,51,Wunderground v.1.15,2013-06-24 10:53:00,
2013-06-24 06:59:00,67.8,67.2,30.02,SSE,164,0.0,1.0,98,0.00,,,0.00,51,Wunderground v.1.15,2013-06-24 10:59:00,
2013-06-24 07:05:00,68.1,67.5,30.02,SSE,157,0.0,0.0,98,0.00,,,0.00,49,Wunderground v.1.15,2013-06-24 11:05:00,
2013-06-24 07:11:00,68.2,67.3,30.02,SSW,194,0.0,1.0,97,0.00,,,0.00,88,Wunderground v.1.15,2013-06-24 11:11:00,
2013-06-24 07:16:00,68.5,67.6,30.02,South,175,0.0,1.0,97,0.00,,,0.00,69,Wunderground v.1.15,2013-06-24 11:16:00,
2013-06-24 07:21:00,68.8,67.9,30.02,SW,225,0.0,0.0,97,0.00,,,0.00,81,Wunderground v.1.15,2013-06-24 11:21:00,
2013-06-24 07:26:00,69.2,68.3,30.02,SSE,149,0.0,2.0,97,0.00,,,0.00,107,Wunderground v.1.15,2013-06-24 11:26:00,
2013-06-24 07:33:00,69.6,68.4,30.02,SSE,167,0.0,0.0,96,0.00,,,0.00,104,Wunderground v.1.15,2013-06-24 11:33:00,
2013-06-24 07:38:00,70.3,68.8,30.02,West,270,0.0,2.0,95,0.00,,,0.00,109,Wunderground v.1.15,2013-06-24 11:38:00,
2013-06-24 07:44:00,70.4,68.6,30.02,SE,134,0.0,1.0,94,0.00,,,0.00,95,Wunderground v.1.15,2013-06-24 11:44:00,
2013-06-24 07:50:00,70.8,69.0,30.02,WNW,287,0.0,0.0,94,0.00,,,0.00,104,Wunderground v.1.15,2013-06-24 11:50:00,
2013-06-24 07:57:00,71.5,69.1,30.01,SE,142,0.0,1.0,92,0.00,,,0.00,76,Wunderground v.1.15,2013-06-24 11:57:00,
2013-06-24 08:03:00,72.2,69.7,30.02,SE,140,0.0,1.0,92,0.00,,,0.00,98,Wunderground v.1.15,2013-06-24 12:03:00,
2013-06-24 08:09:00,72.4,69.6,30.02,SSE,157,0.0,1.0,91,0.00,,,0.00,86,Wunderground v.1.15,2013-06-24 12:09:00,
2013-06-24 08:14:00,72.8,69.7,30.02,SSW,205,1.0,1.0,90,0.00,,,0.00,93,Wunderground v.1.15,2013-06-24 12:14:00,
2013-06-24 08:19:00,73.3,69.9,30.02,SSE,153,1.0,1.0,89,0.00,,,0.00,165,Wunderground v.1.15,2013-06-24 12:19:00,
2013-06-24 08:24:00,73.3,69.9,30.01,NW,306,1.0,2.0,89,0.00,,,0.00,91,Wunderground v.1.15,2013-06-24 12:24:00,
2013-06-24 08:30:00,73.7,69.9,30.01,SE,144,1.0,1.0,88,0.00,,,0.00,84,Wunderground v.1.15,2013-06-24 12:30:00,
2013-06-24 08:36:00,74.4,70.3,30.01,SSE,157,1.0,1.0,87,0.00,,,0.00,109,Wunderground v.1.15,2013-06-24 12:36:00,
2013-06-24 08:42:00,74.8,70.7,30.01,SW,219,1.0,1.0,87,0.00,,,0.00,104,Wunderground v.1.15,2013-06-24 12:42:00,
2013-06-24 08:48:00,74.9,70.4,30.01,SSE,157,1.0,3.0,86,0.00,,,0.00,86,Wunderground v.1.15,2013-06-24 12:48:00,
2013-06-24 08:53:00,75.5,71.4,30.01,South,188,1.0,2.0,87,0.00,,,0.00,84,Wunderground v.1.15,2013-06-24 12:53:00,
2013-06-24 08:58:00,76.0,71.5,30.01,ESE,111,1.0,3.0,86,0.00,,,0.00,178,Wunderground v.1.15,2013-06-24 12:58:00,
2013-06-24 09:04:00,76.1,71.3,30.00,SSE,165,1.0,2.0,85,0.00,,,0.00,134,Wunderground v.1.15,2013-06-24 13:04:00,
2013-06-24 09:10:00,76.3,71.1,30.00,SE,142,1.0,1.0,84,0.00,,,0.00,91,Wunderground v.1.15,2013-06-24 13:10:00,
2013-06-24 09:15:00,76.1,70.9,30.00,SSE,157,1.0,3.0,84,0.00,,,0.00,552,Wunderground v.1.15,2013-06-24 13:15:00,
2013-06-24 09:20:00,76.0,70.8,30.00,SSW,197,1.0,1.0,84,0.00,,,0.00,163,Wunderground v.1.15,2013-06-24 13:20:00,
2013-06-24 09:26:00,76.2,71.0,30.00,South,184,1.0,2.0,84,0.00,,,0.00,160,Wunderground v.1.15,2013-06-24 13:26:00,
2013-06-24 09:32:00,76.2,71.0,30.00,SSE,167,1.0,1.0,84,0.00,,,0.00,225,Wunderground v.1.15,2013-06-24 13:32:00,
2013-06-24 09:37:00,76.5,71.3,30.00,South,185,1.0,2.0,84,0.00,,,0.00,603,Wunderground v.1.15,2013-06-24 13:37:00,
2013-06-24 09:42:00,77.0,71.4,30.00,South,186,0.0,2.0,83,0.00,,,0.00,643,Wunderground v.1.15,2013-06-24 13:42:00,
2013-06-24 09:48:00,76.9,70.6,30.00,SSE,164,1.0,2.0,81,0.00,,,0.00,171,Wunderground v.1.15,2013-06-24 13:48:00,
2013-06-24 09:53:00,77.3,71.4,30.00,SE,144,1.0,2.0,82,0.00,,,0.00,200,Wunderground v.1.15,2013-06-24 13:53:00,
2013-06-24 09:59:00,76.7,70.8,30.00,SSE,164,1.0,5.0,82,0.00,,,0.00,211,Wunderground v.1.15,2013-06-24 13:59:00,
2013-06-24 10:04:00,77.6,71.7,30.00,South,186,1.0,1.0,82,0.00,,,0.00,239,Wunderground v.1.15,2013-06-24 14:04:00,
2013-06-24 10:10:00,77.4,71.1,29.99,SE,143,1.0,1.0,81,0.00,,,0.00,731,Wunderground v.1.15,2013-06-24 14:10:00,
2013-06-24 10:16:00,77.6,71.3,29.99,South,173,2.0,2.0,81,0.00,,,0.00,744,Wunderground v.1.15,2013-06-24 14:16:00,
2013-06-24 10:21:00,78.7,72.0,29.99,South,190,1.0,2.0,80,0.00,,,0.00,756,Wunderground v.1.15,2013-06-24 14:21:00,
2013-06-24 10:27:00,79.1,72.4,29.99,South,186,1.0,2.0,80,0.00,,,0.00,772,Wunderground v.1.15,2013-06-24 14:27:00,
2013-06-24 10:33:00,80.0,71.8,29.99,SE,143,1.0,3.0,76,0.00,,,0.00,784,Wunderground v.1.15,2013-06-24 14:33:00,
2013-06-24 10:38:00,79.2,71.7,29.99,South,175,1.0,3.0,78,0.00,,,0.00,789,Wunderground v.1.15,2013-06-24 14:38:00,
2013-06-24 10:43:00,79.5,71.7,29.99,South,178,1.0,2.0,77,0.00,,,0.00,793,Wunderground v.1.15,2013-06-24 14:43:00,
2013-06-24 10:49:00,79.6,71.4,29.99,SE,133,1.0,4.0,76,0.00,,,0.00,802,Wunderground v.1.15,2013-06-24 14:49:00,
2013-06-24 10:55:00,80.0,71.8,29.99,South,171,1.0,2.0,76,0.00,,,0.00,812,Wunderground v.1.15,2013-06-24 14:55:00,
2013-06-24 11:00:00,80.0,71.8,29.99,SSE,152,1.0,1.0,76,0.00,,,0.00,817,Wunderground v.1.15,2013-06-24 15:00:00,
2013-06-24 11:07:00,80.3,72.4,29.99,South,181,1.0,3.0,77,0.00,,,0.00,824,Wunderground v.1.15,2013-06-24 15:07:00,
2013-06-24 11:12:00,80.3,72.0,29.99,SSE,165,1.0,4.0,76,0.00,,,0.00,838,Wunderground v.1.15,2013-06-24 15:12:00,
2013-06-24 11:20:00,81.0,72.7,29.98,South,178,1.0,1.0,76,0.00,,,0.00,847,Wunderground v.1.15,2013-06-24 15:20:00,
2013-06-24 11:25:00,81.5,72.8,29.98,SW,215,1.0,2.0,75,0.00,,,0.00,851,Wunderground v.1.15,2013-06-24 15:25:00,
2013-06-24 11:30:00,82.0,72.1,29.98,SE,135,1.0,2.0,72,0.00,,,0.00,856,Wunderground v.1.15,2013-06-24 15:30:00,
2013-06-24 11:36:00,82.3,73.2,29.98,SSE,168,1.0,2.0,74,0.00,,,0.00,865,Wunderground v.1.15,2013-06-24 15:36:00,
2013-06-24 11:41:00,81.9,72.0,29.98,SE,141,1.0,2.0,72,0.00,,,0.00,865,Wunderground v.1.15,2013-06-24 15:41:00,
2013-06-24 11:48:00,82.3,73.2,29.98,SW,217,2.0,3.0,74,0.00,,,0.00,872,Wunderground v.1.15,2013-06-24 15:48:00,
2013-06-24 11:53:00,82.2,72.7,29.98,SSW,203,1.0,2.0,73,0.00,,,0.00,875,Wunderground v.1.15,2013-06-24 15:53:00,
2013-06-24 11:58:00,83.7,72.9,29.98,SE,143,1.0,3.0,70,0.00,,,0.00,879,Wunderground v.1.15,2013-06-24 15:58:00,
2013-06-24 12:03:00,82.4,72.9,29.97,SSE,168,1.0,3.0,73,0.00,,,0.00,870,Wunderground v.1.15,2013-06-24 16:03:00,
2013-06-24 12:09:00,82.9,72.5,29.98,SW,223,1.0,3.0,71,0.00,,,0.00,116,Wunderground v.1.15,2013-06-24 16:09:00,
2013-06-24 12:16:00,82.7,72.3,29.97,SE,136,2.0,3.0,71,0.00,,,0.00,142,Wunderground v.1.15,2013-06-24 16:16:00,
2013-06-24 12:21:00,82.1,72.6,29.97,SSE,147,2.0,4.0,73,0.00,,,0.00,169,Wunderground v.1.15,2013-06-24 16:21:00,
2013-06-24 12:27:00,82.5,72.6,29.97,SE,142,2.0,4.0,72,0.00,,,0.00,125,Wunderground v.1.15,2013-06-24 16:27:00,
2013-06-24 12:33:00,82.7,73.2,29.97,SSE,159,2.0,2.0,73,0.00,,,0.00,127,Wunderground v.1.15,2013-06-24 16:33:00,
2013-06-24 12:38:00,83.3,73.3,29.97,SSE,166,2.0,2.0,72,0.00,,,0.00,105,Wunderground v.1.15,2013-06-24 16:38:00,
2013-06-24 12:43:00,84.0,73.6,29.96,South,191,1.0,1.0,71,0.00,,,0.00,105,Wunderground v.1.15,2013-06-24 16:43:00,
2013-06-24 12:49:00,84.4,73.5,29.96,South,170,1.0,3.0,70,0.00,,,0.00,116,Wunderground v.1.15,2013-06-24 16:49:00,
2013-06-24 12:55:00,84.6,73.7,29.96,SE,132,1.0,3.0,70,0.00,,,0.00,107,Wunderground v.1.15,2013-06-24 16:55:00,
2013-06-24 13:01:00,84.9,74.0,29.96,South,186,1.0,1.0,70,0.00,,,0.00,105,Wunderground v.1.15,2013-06-24 17:01:00,
2013-06-24 13:07:00,84.6,74.2,29.96,SSE,161,2.0,3.0,71,0.00,,,0.00,165,Wunderground v.1.15,2013-06-24 17:07:00,
2013-06-24 13:14:00,84.9,74.0,29.96,SE,136,2.0,3.0,70,0.00,,,0.00,132,Wunderground v.1.15,2013-06-24 17:14:00,
2013-06-24 13:20:00,85.2,74.3,29.96,SSE,159,1.0,1.0,70,0.00,,,0.00,123,Wunderground v.1.15,2013-06-24 17:20:00,
2013-06-24 13:25:00,85.4,74.5,29.96,South,182,1.0,2.0,70,0.00,,,0.00,148,Wunderground v.1.15,2013-06-24 17:25:00,
2013-06-24 13:31:00,86.3,75.4,29.95,South,182,1.0,1.0,70,0.00,,,0.00,123,Wunderground v.1.15,2013-06-24 17:31:00,
2013-06-24 13:36:00,86.2,74.0,29.95,South,188,1.0,3.0,67,0.00,,,0.00,146,Wunderground v.1.15,2013-06-24 17:36:00,
2013-06-24 13:41:00,85.3,74.0,29.95,South,174,2.0,2.0,69,0.00,,,0.00,123,Wunderground v.1.15,2013-06-24 17:41:00,
2013-06-24 13:46:00,85.0,74.1,29.95,SE,136,2.0,3.0,70,0.00,,,0.00,167,Wunderground v.1.15,2013-06-24 17:46:00,
2013-06-24 13:53:00,85.2,73.9,29.95,SSE,150,2.0,3.0,69,0.00,,,0.00,308,Wunderground v.1.15,2013-06-24 17:53:00,
2013-06-24 13:58:00,85.3,74.0,29.95,South,175,2.0,3.0,69,0.00,,,0.00,283,Wunderground v.1.15,2013-06-24 17:58:00,
2013-06-24 14:04:00,85.1,74.2,29.95,SSE,166,2.0,2.0,70,0.00,,,0.00,338,Wunderground v.1.15,2013-06-24 18:04:00,
2013-06-24 14:11:00,84.6,73.7,29.94,SSE,153,2.0,3.0,70,0.00,,,0.00,156,Wunderground v.1.15,2013-06-24 18:11:00,
2013-06-24 14:17:00,84.5,74.1,29.94,SSE,168,2.0,5.0,71,0.00,,,0.00,236,Wunderground v.1.15,2013-06-24 18:17:00,
2013-06-24 14:23:00,84.9,74.0,29.94,South,178,2.0,3.0,70,0.00,,,0.00,146,Wunderground v.1.15,2013-06-24 18:23:00,
2013-06-24 14:30:00,85.4,74.5,29.93,South,189,1.0,1.0,70,0.00,,,0.00,281,Wunderground v.1.15,2013-06-24 18:30:00,
2013-06-24 14:36:00,85.2,74.3,29.93,South,173,1.0,2.0,70,0.00,,,0.00,550,Wunderground v.1.15,2013-06-24 18:36:00,
2013-06-24 14:42:00,83.9,73.5,29.93,ESE,119,1.0,2.0,71,0.00,,,0.00,221,Wunderground v.1.15,2013-06-24 18:42:00,
2013-06-24 14:47:00,83.6,73.6,29.93,ESE,117,2.0,2.0,72,0.00,,,0.00,221,Wunderground v.1.15,2013-06-24 18:47:00,
2013-06-24 14:53:00,84.5,74.1,29.93,SSE,147,2.0,3.0,71,0.00,,,0.00,200,Wunderground v.1.15,2013-06-24 18:53:00,
2013-06-24 14:59:00,83.9,73.5,29.93,SSE,148,2.0,4.0,71,0.00,,,0.00,229,Wunderground v.1.15,2013-06-24 18:59:00,
2013-06-24 15:04:00,83.2,73.2,29.93,SSE,166,1.0,3.0,72,0.00,,,0.00,229,Wunderground v.1.15,2013-06-24 19:04:00,
2013-06-24 15:09:00,83.4,73.8,29.93,SSE,150,1.0,2.0,73,0.00,,,0.00,650,Wunderground v.1.15,2013-06-24 19:09:00,
2013-06-24 15:15:00,83.2,73.6,29.92,South,174,1.0,2.0,73,0.00,,,0.00,485,Wunderground v.1.15,2013-06-24 19:15:00,
2013-06-24 15:23:00,84.0,74.4,29.92,SE,142,1.0,2.0,73,0.00,,,0.00,536,Wunderground v.1.15,2013-06-24 19:23:00,
2013-06-24 15:29:00,85.0,74.5,29.92,South,177,1.0,2.0,71,0.00,,,0.00,139,Wunderground v.1.15,2013-06-24 19:29:00,
2013-06-24 15:34:00,84.6,74.6,29.92,SSE,147,1.0,3.0,72,0.00,,,0.00,715,Wunderground v.1.15,2013-06-24 19:34:00,
2013-06-24 15:39:00,84.6,74.6,29.92,SSE,162,1.0,1.0,72,0.00,,,0.00,146,Wunderground v.1.15,2013-06-24 19:39:00,
2013-06-24 15:45:00,84.1,74.1,29.91,SE,135,2.0,2.0,72,0.00,,,0.00,689,Wunderground v.1.15,2013-06-24 19:45:00,
2013-06-24 15:52:00,84.4,74.4,29.91,SE,144,2.0,2.0,72,0.00,,,0.00,176,Wunderground v.1.15,2013-06-24 19:52:00,
2013-06-24 15:58:00,85.2,74.7,29.91,SE,144,1.0,2.0,71,0.00,,,0.00,118,Wunderground v.1.15,2013-06-24 19:58:00,
2013-06-24 16:03:00,85.4,74.9,29.91,SSE,155,0.0,0.0,71,0.00,,,0.00,190,Wunderground v.1.15,2013-06-24 20:03:00,
2013-06-24 16:09:00,85.8,75.7,29.90,ESE,117,0.0,0.0,72,0.00,,,0.00,550,Wunderground v.1.15,2013-06-24 20:09:00,
2013-06-24 16:15:00,85.6,74.7,29.90,SSE,156,0.0,1.0,70,0.00,,,0.00,135,Wunderground v.1.15,2013-06-24 20:15:00,
2013-06-24 16:21:00,85.4,74.9,29.90,South,182,0.0,0.0,71,0.00,,,0.00,580,Wunderground v.1.15,2013-06-24 20:21:00,
2013-06-24 16:26:00,85.3,74.8,29.90,SE,146,1.0,2.0,71,0.00,,,0.00,545,Wunderground v.1.15,2013-06-24 20:26:00,
2013-06-24 16:32:00,84.5,74.1,29.90,SSE,153,1.0,1.0,71,0.00,,,0.00,137,Wunderground v.1.15,2013-06-24 20:32:00,
2013-06-24 16:38:00,83.8,74.2,29.90,ESE,119,1.0,2.0,73,0.00,,,0.00,111,Wunderground v.1.15,2013-06-24 20:38:00,
2013-06-24 16:43:00,83.5,74.3,29.90,SSE,158,1.0,1.0,74,0.00,,,0.00,104,Wunderground v.1.15,2013-06-24 20:43:00,
2013-06-24 16:49:00,83.5,73.9,29.89,ESE,113,1.0,3.0,73,0.00,,,0.00,533,Wunderground v.1.15,2013-06-24 20:49:00,
2013-06-24 16:55:00,84.0,74.0,29.89,SE,136,1.0,2.0,72,0.00,,,0.00,104,Wunderground v.1.15,2013-06-24 20:55:00,
2013-06-24 17:00:00,84.2,74.6,29.89,SSE,150,0.0,1.0,73,0.00,,,0.00,417,Wunderground v.1.15,2013-06-24 21:00:00,
2013-06-24 17:06:00,84.3,74.3,29.89,South,190,1.0,3.0,72,0.00,,,0.00,501,Wunderground v.1.15,2013-06-24 21:06:00,
2013-06-24 17:12:00,84.3,74.3,29.89,SSE,157,1.0,1.0,72,0.00,,,0.00,109,Wunderground v.1.15,2013-06-24 21:12:00,
2013-06-24 17:17:00,83.8,73.8,29.89,South,178,1.0,3.0,72,0.00,,,0.00,118,Wunderground v.1.15,2013-06-24 21:17:00,
2013-06-24 17:23:00,83.4,74.2,29.89,SSE,149,1.0,1.0,74,0.00,,,0.00,411,Wunderground v.1.15,2013-06-24 21:23:00,
2013-06-24 17:29:00,84.1,75.3,29.89,SSE,168,0.0,1.0,75,0.00,,,0.00,125,Wunderground v.1.15,2013-06-24 21:29:00,
2013-06-24 17:34:00,84.9,75.3,29.89,SSE,148,0.0,2.0,73,0.00,,,0.00,135,Wunderground v.1.15,2013-06-24 21:34:00,
2013-06-24 17:39:00,85.8,75.7,29.89,South,171,0.0,0.0,72,0.00,,,0.00,128,Wunderground v.1.15,2013-06-24 21:39:00,
2013-06-24 17:45:00,86.2,75.7,29.89,South,185,0.0,1.0,71,0.00,,,0.00,116,Wunderground v.1.15,2013-06-24 21:45:00,
2013-06-24 17:50:00,86.5,75.5,29.89,SSW,206,0.0,0.0,70,0.00,,,0.00,137,Wunderground v.1.15,2013-06-24 21:50:00,
2013-06-24 17:56:00,87.0,75.6,29.89,WNW,287,1.0,3.0,69,0.00,,,0.00,139,Wunderground v.1.15,2013-06-24 21:56:00,
2013-06-24 18:01:00,86.9,75.1,29.89,SSE,157,1.0,1.0,68,0.00,,,0.00,179,Wunderground v.1.15,2013-06-24 22:01:00,
2013-06-24 18:06:00,86.5,75.1,29.89,SSE,154,0.0,1.0,69,0.00,,,0.00,213,Wunderground v.1.15,2013-06-24 22:06:00,
2013-06-24 18:12:00,86.3,74.9,29.89,SW,223,0.0,0.0,69,0.00,,,0.00,90,Wunderground v.1.15,2013-06-24 22:12:00,
2013-06-24 18:18:00,85.9,74.5,29.89,SSW,203,0.0,1.0,69,0.00,,,0.00,72,Wunderground v.1.15,2013-06-24 22:18:00,
2013-06-24 18:23:00,85.5,74.6,29.90,SSE,148,0.0,1.0,70,0.00,,,0.00,65,Wunderground v.1.15,2013-06-24 22:23:00,
2013-06-24 18:28:00,85.3,74.4,29.90,SSE,148,0.0,1.0,70,0.00,,,0.00,54,Wunderground v.1.15,2013-06-24 22:28:00,
2013-06-24 18:35:00,84.9,74.0,29.90,South,186,0.0,1.0,70,0.00,,,0.00,49,Wunderground v.1.15,2013-06-24 22:35:00,
2013-06-24 18:40:00,84.6,73.7,29.90,SSE,161,0.0,0.0,70,0.00,,,0.00,54,Wunderground v.1.15,2013-06-24 22:40:00,
2013-06-24 18:46:00,84.5,74.1,29.90,ESE,118,0.0,0.0,71,0.00,,,0.00,39,Wunderground v.1.15,2013-06-24 22:46:00,
2013-06-24 18:51:00,84.2,73.8,29.90,SE,144,0.0,1.0,71,0.00,,,0.00,26,Wunderground v.1.15,2013-06-24 22:51:00,
2013-06-24 18:56:00,83.5,73.9,29.90,SSE,161,0.0,1.0,73,0.00,,,0.00,23,Wunderground v.1.15,2013-06-24 22:56:00,
2013-06-24 19:02:00,81.5,72.4,29.90,SE,125,0.0,1.0,74,0.00,,,0.00,21,Wunderground v.1.15,2013-06-24 23:02:00,
2013-06-24 19:09:00,79.2,71.7,29.90,SE,132,0.0,1.0,78,0.00,,,0.00,18,Wunderground v.1.15,2013-06-24 23:09:00,
2013-06-24 19:15:00,78.5,71.8,29.91,SE,140,0.0,0.0,80,0.00,,,0.00,16,Wunderground v.1.15,2013-06-24 23:15:00,
2013-06-24 19:21:00,78.2,71.9,29.91,SE,146,0.0,0.0,81,0.00,,,0.00,14,Wunderground v.1.15,2013-06-24 23:21:00,
2013-06-24 19:26:00,78.3,72.0,29.90,SE,146,0.0,0.0,81,0.00,,,0.00,14,Wunderground v.1.15,2013-06-24 23:26:00,
2013-06-24 19:31:00,78.6,72.3,29.90,SE,146,0.0,0.0,81,0.00,,,0.00,14,Wunderground v.1.15,2013-06-24 23:31:00,
2013-06-24 19:37:00,79.0,71.9,29.90,SE,146,0.0,0.0,79,0.00,,,0.00,14,Wunderground v.1.15,2013-06-24 23:37:00,
2013-06-24 19:43:00,79.8,71.9,29.90,South,186,0.0,0.0,77,0.00,,,0.00,14,Wunderground v.1.15,2013-06-24 23:43:00,
2013-06-24 19:50:00,80.0,72.1,29.90,SW,219,0.0,0.0,77,0.00,,,0.00,14,Wunderground v.1.15,2013-06-24 23:50:00,
2013-06-24 19:55:00,79.4,71.9,29.90,SSW,200,0.0,0.0,78,0.00,,,0.00,12,Wunderground v.1.15,2013-06-24 23:55:00,
2013-06-24 20:00:00,78.4,71.3,29.90,SSW,200,0.0,0.0,79,0.00,,,0.00,11,Wunderground v.1.15,2013-06-25 00:00:00,
2013-06-24 20:05:00,78.0,71.3,29.90,SSE,161,0.0,1.0,80,0.00,,,0.00,7,Wunderground v.1.15,2013-06-25 00:05:00,
2013-06-24 20:12:00,78.4,71.7,29.91,SSE,161,0.0,0.0,80,0.00,,,0.00,0,Wunderground v.1.15,2013-06-25 00:12:00,
2013-06-24 20:18:00,78.5,71.4,29.91,SSE,161,0.0,0.0,79,0.00,,,0.00,0,Wunderground v.1.15,2013-06-25 00:18:00,
2013-06-24 20:23:00,78.4,71.3,29.91,NW,321,0.0,1.0,79,0.00,,,0.00,0,Wunderground v.1.15,2013-06-25 00:23:00,
2013-06-24 20:30:00,79.2,71.4,29.92,SE,128,0.0,0.0,77,0.00,,,0.00,0,Wunderground v.1.15,2013-06-25 00:30:00,
2013-06-24 20:37:00,79.9,71.7,29.92,NE,40,0.0,0.0,76,0.00,,,0.00,0,Wunderground v.1.15,2013-06-25 00:37:00,
2013-06-24 20:43:00,80.0,71.4,29.92,SE,126,0.0,0.0,75,0.00,,,0.00,0,Wunderground v.1.15,2013-06-25 00:43:00,
2013-06-24 20:48:00,80.0,71.8,29.92,SE,126,0.0,0.0,76,0.00,,,0.00,0,Wunderground v.1.15,2013-06-25 00:48:00,
2013-06-24 20:54:00,79.6,71.8,29.92,SSE,157,0.0,0.0,77,0.00,,,0.00,0,Wunderground v.1.15,2013-06-25 00:54:00,
2013-06-24 20:59:00,78.2,71.2,29.92,SSE,157,0.0,1.0,79,0.00,,,0.00,0,Wunderground v.1.15,2013-06-25 00:59:00,
2013-06-24 21:04:00,76.7,70.8,29.92,South,171,1.0,2.0,82,0.00,,,0.00,0,Wunderground v.1.15,2013-06-25 01:04:00,
2013-06-24 21:10:00,75.8,70.6,29.93,SSE,166,1.0,1.0,84,0.00,,,0.00,0,Wunderground v.1.15,2013-06-25 01:10:00,
2013-06-24 21:15:00,75.5,70.3,29.94,SSE,166,0.0,1.0,84,0.00,,,0.00,0,Wunderground v.1.15,2013-06-25 01:15:00,
2013-06-24 21:21:00,75.4,70.6,29.95,SSE,166,0.0,0.0,85,0.00,,,0.00,0,Wunderground v.1.15,2013-06-25 01:21:00,
2013-06-24 21:26:00,75.4,70.6,29.97,WNW,282,0.0,2.0,85,0.00,,,0.00,0,Wunderground v.1.15,2013-06-25 01:26:00,
2013-06-24 21:32:00,75.5,68.2,29.97,East,90,1.0,2.0,78,0.00,,,0.00,0,Wunderground v.1.15,2013-06-25 01:32:00,
2013-06-24 21:37:00,75.5,67.4,29.97,NE,43,1.0,2.0,76,0.00,,,0.00,0,Wunderground v.1.15,2013-06-25 01:37:00,
2013-06-24 21:42:00,75.3,66.8,29.97,NNW,332,1.0,1.0,75,0.00,,,0.00,0,Wunderground v.1.15,2013-06-25 01:42:00,
2013-06-24 21:48:00,75.2,66.7,29.97,NNW,333,1.0,3.0,75,0.00,,,0.00,0,Wunderground v.1.15,2013-06-25 01:48:00,
2013-06-24 21:53:00,75.1,67.0,29.97,WNW,290,1.0,1.0,76,0.00,,,0.00,0,Wunderground v.1.15,2013-06-25 01:53:00,
2013-06-24 21:59:00,74.9,66.8,29.97,NW,316,1.0,2.0,76,0.00,,,0.00,0,Wunderground v.1.15,2013-06-25 01:59:00,
2013-06-24 22:04:00,74.7,66.6,29.97,ENE,60,1.0,1.0,76,0.00,,,0.00,0,Wunderground v.1.15,2013-06-25 02:04:00,
2013-06-24 22:09:00,74.4,66.7,29.97,North,5,0.0,0.0,77,0.00,,,0.00,0,Wunderground v.1.15,2013-06-25 02:09:00,
2013-06-24 22:15:00,74.2,66.5,29.97,North,10,0.0,0.0,77,0.00,,,0.00,0,Wunderground v.1.15,2013-06-25 02:15:00,
2013-06-24 22:20:00,74.1,66.8,29.97,WNW,292,0.0,0.0,78,0.00,,,0.00,0,Wunderground v.1.15,2013-06-25 02:20:00,
2013-06-24 22:26:00,73.8,66.9,29.97,NE,49,0.0,1.0,79,0.00,,,0.00,0,Wunderground v.1.15,2013-06-25 02:26:00,
2013-06-24 22:31:00,73.6,66.7,29.97,East,86,0.0,0.0,79,0.00,,,0.00,0,Wunderground v.1.15,2013-06-25 02:31:00,
2013-06-24 22:36:00,73.4,66.9,29.96,East,86,0.0,0.0,80,0.00,,,0.00,0,Wunderground v.1.15,2013-06-25 02:36:00,
2013-06-24 22:41:00,72.8,67.0,29.97,East,86,0.0,0.0,82,0.00,,,0.00,0,Wunderground v.1.15,2013-06-25 02:41:00,
2013-06-24 22:47:00,72.3,66.8,29.96,East,86,0.0,0.0,83,0.00,,,0.00,0,Wunderground v.1.15,2013-06-25 02:47:00,
2013-06-24 22:53:00,72.0,66.9,29.96,East,86,0.0,0.0,84,0.00,,,0.00,0,Wunderground v.1.15,2013-06-25 02:53:00,
2013-06-24 22:58:00,71.6,66.8,29.95,East,86,0.0,0.0,85,0.00,,,0.00,0,Wunderground v.1.15,2013-06-25 02:58:00,
2013-06-24 23:04:00,71.3,66.6,29.95,East,86,0.0,0.0,85,0.00,,,0.00,0,Wunderground v.1.15,2013-06-25 03:04:00,
2013-06-24 23:09:00,70.8,66.7,29.95,East,86,0.0,0.0,87,0.00,,,0.00,0,Wunderground v.1.15,2013-06-25 03:09:00,
2013-06-24 23:17:00,70.5,66.4,29.94,East,86,0.0,0.0,87,0.00,,,0.00,0,Wunderground v.1.15,2013-06-25 03:17:00,
2013-06-24 23:25:00,69.9,66.2,29.94,East,86,0.0,0.0,88,0.00,,,0.00,0,Wunderground v.1.15,2013-06-25 03:25:00,
2013-06-24 23:30:00,70.0,66.3,29.94,East,86,0.0,0.0,88,0.00,,,0.00,0,Wunderground v.1.15,2013-06-25 03:30:00,
2013-06-24 23:35:00,69.9,66.2,29.93,East,86,0.0,0.0,88,0.00,,,0.00,0,Wunderground v.1.15,2013-06-25 03:35:00,
2013-06-24 23:45:00,69.5,66.1,29.93,East,86,0.0,0.0,89,0.00,,,0.00,0,Wunderground v.1.15,2013-06-25 03:45:00,
2013-06-24 23:50:00,69.4,66.0,29.93,East,86,0.0,0.0,89,0.00,,,0.00,0,Wunderground v.1.15,2013-06-25 03:50:00,
2013-06-24 23:57:00,69.0,65.9,29.93,East,86,0.0,0.0,90,0.00,,,0.00,0,Wunderground v.1.15,2013-06-25 03:57:00,